Time,TemperatureF,DewpointF,PressureIn,WindDirection,WindDirectionDegrees,WindSpeedMPH,WindSpeedGustMPH,Humidity,HourlyPrecipIn,Conditions,Clouds,dailyrainin,SoftwareType,DateUTC
2013-01-10 00:11:00,49.5,49.0,30.54,SSW,207,0.0,0.0,97,0.00,,,0.00,weatherlink.com 1.10,2013-01-10 05:11:00,
2013-01-10 00:26:00,49.3,49.0,30.55,SSW,207,0.0,1.0,97,0.00,,,0.00,weatherlink.com 1.10,2013-01-10 05:26:00,
2013-01-10 00:55:00,49.4,49.0,30.54,SSW,207,2.0,3.0,97,0.00,,,0.00,weatherlink.com 1.10,2013-01-10 05:55:00,
2013-01-10 01:10:00,49.2,48.0,30.54,SSW,207,0.0,2.0,96,0.00,,,0.00,weatherlink.com 1.10,2013-01-10 06:10:00,
2013-01-10 01:25:00,49.1,48.0,30.54,SSW,207,0.0,0.0,97,0.00,,,0.00,weatherlink.com 1.10,2013-01-10 06:25:00,
2013-01-10 01:40:00,48.7,48.0,30.54,SSW,207,0.0,0.0,96,0.00,,,0.00,weatherlink.com 1.10,2013-01-10 06:40:00,
2013-01-10 01:55:00,48.8,48.0,30.55,SSW,207,0.0,0.0,97,0.00,,,0.00,weatherlink.com 1.10,2013-01-10 06:55:00,
2013-01-10 02:10:00,48.8,48.0,30.55,SSW,207,0.0,0.0,97,0.00,,,0.00,weatherlink.com 1.10,2013-01-10 07:10:00,
2013-01-10 02:25:00,48.5,48.0,30.55,SSW,207,0.0,1.0,97,0.00,,,0.00,weatherlink.com 1.10,2013-01-10 07:25:00,
2013-01-10 02:40:00,48.5,48.0,30.54,SSW,207,0.0,0.0,97,0.00,,,0.00,weatherlink.com 1.10,2013-01-10 07:40:00,
2013-01-10 02:55:00,48.6,48.0,30.54,SSW,207,0.0,3.0,98,0.00,,,0.00,weatherlink.com 1.10,2013-01-10 07:55:00,
2013-01-10 03:10:00,48.8,48.0,30.54,SSW,207,0.0,0.0,98,0.00,,,0.00,weatherlink.com 1.10,2013-01-10 08:10:00,
2013-01-10 03:25:00,48.7,48.0,30.54,SSW,207,0.0,0.0,98,0.00,,,0.00,weatherlink.com 1.10,2013-01-10 08:25:00,
2013-01-10 03:40:00,47.9,47.0,30.54,SSW,207,0.0,0.0,96,0.00,,,0.00,weatherlink.com 1.10,2013-01-10 08:40:00,
2013-01-10 03:55:00,47.2,46.0,30.53,SSW,207,0.0,0.0,97,0.00,,,0.00,weatherlink.com 1.10,2013-01-10 08:55:00,
2013-01-10 04:10:00,47.4,47.0,30.53,SSW,207,0.0,1.0,98,0.00,,,0.00,weatherlink.com 1.10,2013-01-10 09:10:00,
2013-01-10 04:25:00,47.8,47.0,30.54,SSW,207,0.0,0.0,98,0.00,,,0.00,weatherlink.com 1.10,2013-01-10 09:25:00,
2013-01-10 04:40:00,47.1,46.0,30.54,SSW,207,0.0,0.0,97,0.00,,,0.00,weatherlink.com 1.10,2013-01-10 09:40:00,
2013-01-10 04:55:00,46.9,46.0,30.54,SSW,207,0.0,0.0,97,0.00,,,0.00,weatherlink.com 1.10,2013-01-10 09:55:00,
2013-01-10 05:10:00,46.8,46.0,30.54,SSW,207,0.0,1.0,97,0.00,,,0.00,weatherlink.com 1.10,2013-01-10 10:10:00,
2013-01-10 05:25:00,46.7,46.0,30.53,SSW,207,0.0,2.0,97,0.00,,,0.00,weatherlink.com 1.10,2013-01-10 10:25:00,
2013-01-10 05:40:00,47.0,47.0,30.53,SSW,207,0.0,1.0,98,0.00,,,0.00,weatherlink.com 1.10,2013-01-10 10:40:00,
2013-01-10 05:55:00,47.0,47.0,30.54,SSW,207,0.0,0.0,98,0.00,,,0.00,weatherlink.com 1.10,2013-01-10 10:55:00,
2013-01-10 06:10:00,46.0,45.0,30.54,SSW,207,0.0,0.0,97,0.00,,,0.00,weatherlink.com 1.10,2013-01-10 11:10:00,
2013-01-10 06:25:00,46.9,46.0,30.55,SSW,207,0.0,0.0,98,0.00,,,0.00,weatherlink.com 1.10,2013-01-10 11:25:00,
2013-01-10 06:40:00,47.7,47.0,30.55,SSW,207,0.0,0.0,98,0.00,,,0.00,weatherlink.com 1.10,2013-01-10 11:40:00,
2013-01-10 06:55:00,48.1,48.0,30.55,SSW,207,0.0,1.0,98,0.00,,,0.00,weatherlink.com 1.10,2013-01-10 11:55:00,
2013-01-10 07:10:00,48.5,48.0,30.54,SSW,206,2.0,3.0,99,0.00,,,0.00,weatherlink.com 1.10,2013-01-10 12:10:00,
2013-01-10 07:25:00,48.0,48.0,30.55,SSW,206,0.0,0.0,98,0.00,,,0.00,weatherlink.com 1.10,2013-01-10 12:25:00,
2013-01-10 07:40:00,47.9,47.0,30.55,SSW,206,0.0,0.0,98,0.00,,,0.00,weatherlink.com 1.10,2013-01-10 12:40:00,
2013-01-10 07:56:00,48.1,48.0,30.56,SSW,206,0.0,0.0,98,0.00,,,0.00,weatherlink.com 1.10,2013-01-10 12:56:00,
2013-01-10 08:11:00,48.4,48.0,30.56,SSW,206,0.0,1.0,99,0.00,,,0.00,weatherlink.com 1.10,2013-01-10 13:11:00,
2013-01-10 08:26:00,49.2,49.0,30.56,SSW,206,0.0,1.0,99,0.00,,,0.00,weatherlink.com 1.10,2013-01-10 13:26:00,
2013-01-10 08:41:00,49.6,49.0,30.57,SSW,206,0.0,0.0,99,0.00,,,0.00,weatherlink.com 1.10,2013-01-10 13:41:00,
2013-01-10 08:56:00,49.8,50.0,30.57,SSW,206,0.0,1.0,99,0.00,,,0.00,weatherlink.com 1.10,2013-01-10 13:56:00,
2013-01-10 09:11:00,50.2,50.0,30.58,SSW,206,0.0,1.0,99,0.00,,,0.00,weatherlink.com 1.10,2013-01-10 14:11:00,
2013-01-10 09:26:00,51.3,51.0,30.58,SSW,206,2.0,3.0,99,0.00,,,0.00,weatherlink.com 1.10,2013-01-10 14:26:00,
2013-01-10 09:41:00,52.2,52.0,30.57,South,178,3.0,4.0,99,0.00,,,0.00,weatherlink.com 1.10,2013-01-10 14:41:00,
2013-01-10 09:56:00,53.1,53.0,30.57,South,173,1.0,3.0,98,0.00,,,0.00,weatherlink.com 1.10,2013-01-10 14:56:00,
2013-01-10 10:11:00,53.6,53.0,30.58,South,173,1.0,3.0,96,0.00,,,0.00,weatherlink.com 1.10,2013-01-10 15:11:00,
2013-01-10 10:26:00,54.2,53.0,30.58,East,97,2.0,5.0,94,0.00,,,0.00,weatherlink.com 1.10,2013-01-10 15:26:00,
2013-01-10 10:41:00,55.0,53.0,30.58,East,91,1.0,5.0,92,0.00,,,0.00,weatherlink.com 1.10,2013-01-10 15:41:00,
2013-01-10 10:56:00,55.5,53.0,30.58,East,98,2.0,5.0,91,0.00,,,0.00,weatherlink.com 1.10,2013-01-10 15:56:00,
2013-01-10 11:11:00,56.4,54.0,30.58,ESE,114,7.0,7.0,90,0.00,,,0.00,weatherlink.com 1.10,2013-01-10 16:11:00,
2013-01-10 11:26:00,56.9,53.0,30.57,East,101,2.0,3.0,87,0.00,,,0.00,weatherlink.com 1.10,2013-01-10 16:26:00,
2013-01-10 11:41:00,57.3,53.0,30.57,East,83,2.0,5.0,86,0.00,,,0.00,weatherlink.com 1.10,2013-01-10 16:41:00,
2013-01-10 11:56:00,57.5,53.0,30.56,East,99,0.0,5.0,86,0.00,,,0.00,weatherlink.com 1.10,2013-01-10 16:56:00,
2013-01-10 12:11:00,58.0,54.0,30.54,East,99,2.0,3.0,85,0.00,,,0.00,weatherlink.com 1.10,2013-01-10 17:11:00,
2013-01-10 12:26:00,58.4,54.0,30.54,East,94,1.0,5.0,84,0.00,,,0.00,weatherlink.com 1.10,2013-01-10 17:26:00,
2013-01-10 12:41:00,58.5,53.0,30.52,East,90,3.0,5.0,83,0.00,,,0.00,weatherlink.com 1.10,2013-01-10 17:41:00,
2013-01-10 12:56:00,59.0,54.0,30.52,ESE,106,0.0,4.0,82,0.00,,,0.00,weatherlink.com 1.10,2013-01-10 17:56:00,
2013-01-10 13:11:00,59.9,54.0,30.51,ESE,123,1.0,4.0,80,0.00,,,0.00,weatherlink.com 1.10,2013-01-10 18:11:00,
2013-01-10 13:26:00,60.7,54.0,30.50,East,97,0.0,3.0,78,0.00,,,0.00,weatherlink.com 1.10,2013-01-10 18:26:00,
2013-01-10 13:41:00,61.3,53.0,30.50,East,94,1.0,5.0,75,0.00,,,0.00,weatherlink.com 1.10,2013-01-10 18:41:00,
2013-01-10 13:56:00,61.7,54.0,30.49,ENE,76,1.0,3.0,75,0.00,,,0.00,weatherlink.com 1.10,2013-01-10 18:56:00,
2013-01-10 14:12:00,61.8,53.0,30.48,East,90,1.0,3.0,73,0.00,,,0.00,weatherlink.com 1.10,2013-01-10 19:12:00,
2013-01-10 14:27:00,61.7,53.0,30.48,East,90,1.0,2.0,73,0.00,,,0.00,weatherlink.com 1.10,2013-01-10 19:27:00,
2013-01-10 14:42:00,61.6,53.0,30.48,East,90,0.0,3.0,73,0.00,,,0.00,weatherlink.com 1.10,2013-01-10 19:42:00,
2013-01-10 14:57:00,61.7,53.0,30.48,East,90,0.0,3.0,74,0.00,,,0.00,weatherlink.com 1.10,2013-01-10 19:57:00,
2013-01-10 15:12:00,61.8,53.0,30.48,East,90,0.0,3.0,74,0.00,,,0.00,weatherlink.com 1.10,2013-01-10 20:12:00,
2013-01-10 15:27:00,61.7,53.0,30.48,East,90,0.0,5.0,73,0.00,,,0.00,weatherlink.com 1.10,2013-01-10 20:27:00,
2013-01-10 15:42:00,61.2,52.0,30.48,East,88,3.0,5.0,73,0.00,,,0.00,weatherlink.com 1.10,2013-01-10 20:42:00,
2013-01-10 15:57:00,60.7,52.0,30.49,East,91,1.0,5.0,74,0.00,,,0.00,weatherlink.com 1.10,2013-01-10 20:57:00,
2013-01-10 16:12:00,60.0,52.0,30.49,East,91,1.0,3.0,75,0.00,,,0.00,weatherlink.com 1.10,2013-01-10 21:12:00,
2013-01-10 16:27:00,59.3,52.0,30.49,East,91,2.0,3.0,76,0.00,,,0.00,weatherlink.com 1.10,2013-01-10 21:27:00,
2013-01-10 16:42:00,58.5,51.0,30.49,East,91,0.0,2.0,77,0.00,,,0.00,weatherlink.com 1.10,2013-01-10 21:42:00,
2013-01-10 16:57:00,58.0,51.0,30.49,SE,137,0.0,2.0,78,0.00,,,0.00,weatherlink.com 1.10,2013-01-10 21:57:00,
2013-01-10 17:12:00,57.7,51.0,30.50,SE,137,2.0,2.0,79,0.00,,,0.00,weatherlink.com 1.10,2013-01-10 22:12:00,
2013-01-10 17:27:00,57.2,51.0,30.49,SE,137,0.0,1.0,80,0.00,,,0.00,weatherlink.com 1.10,2013-01-10 22:27:00,
2013-01-10 17:42:00,56.5,51.0,30.49,SE,137,0.0,2.0,82,0.00,,,0.00,weatherlink.com 1.10,2013-01-10 22:42:00,
2013-01-10 17:57:00,56.2,51.0,30.50,SE,137,0.0,3.0,83,0.00,,,0.00,weatherlink.com 1.10,2013-01-10 22:57:00,
2013-01-10 18:12:00,56.1,51.0,30.49,ESE,121,1.0,3.0,83,0.00,,,0.00,weatherlink.com 1.10,2013-01-10 23:12:00,
2013-01-10 18:27:00,56.0,51.0,30.48,SE,131,0.0,4.0,83,0.00,,,0.00,weatherlink.com 1.10,2013-01-10 23:27:00,
2013-01-10 18:57:00,56.1,51.0,30.48,SE,124,0.0,3.0,82,0.00,,,0.00,weatherlink.com 1.10,2013-01-10 23:57:00,
2013-01-10 19:12:00,55.9,51.0,30.48,SE,130,1.0,3.0,82,0.00,,,0.00,weatherlink.com 1.10,2013-01-11 00:12:00,
2013-01-10 19:27:00,56.0,50.0,30.48,East,92,0.0,5.0,81,0.00,,,0.00,weatherlink.com 1.10,2013-01-11 00:27:00,
2013-01-10 19:42:00,55.8,50.0,30.47,WNW,302,0.0,3.0,81,0.00,,,0.00,weatherlink.com 1.10,2013-01-11 00:42:00,
2013-01-10 19:57:00,55.7,50.0,30.48,ESE,113,0.0,4.0,81,0.00,,,0.00,weatherlink.com 1.10,2013-01-11 00:57:00,
2013-01-10 20:12:00,55.6,50.0,30.46,ESE,104,3.0,5.0,81,0.00,,,0.00,weatherlink.com 1.10,2013-01-11 01:12:00,
2013-01-10 20:27:00,55.4,50.0,30.46,ESE,103,1.0,5.0,81,0.00,,,0.00,weatherlink.com 1.10,2013-01-11 01:27:00,
2013-01-10 20:42:00,55.4,49.0,30.46,ESE,115,3.0,6.0,80,0.00,,,0.00,weatherlink.com 1.10,2013-01-11 01:42:00,
2013-01-10 20:57:00,55.5,49.0,30.46,East,89,3.0,8.0,79,0.00,,,0.00,weatherlink.com 1.10,2013-01-11 01:57:00,
2013-01-10 21:12:00,55.5,48.0,30.45,East,92,2.0,14.0,77,0.00,,,0.00,weatherlink.com 1.10,2013-01-11 02:12:00,
2013-01-10 21:27:00,55.3,48.0,30.45,East,93,5.0,10.0,77,0.00,,,0.00,weatherlink.com 1.10,2013-01-11 02:27:00,
2013-01-10 21:42:00,55.1,48.0,30.45,East,90,5.0,9.0,76,0.00,,,0.00,weatherlink.com 1.10,2013-01-11 02:42:00,
2013-01-10 21:57:00,55.0,47.0,30.45,East,91,1.0,9.0,75,0.00,,,0.00,weatherlink.com 1.10,2013-01-11 02:57:00,
2013-01-10 22:12:00,54.6,47.0,30.44,East,81,3.0,8.0,75,0.00,,,0.00,weatherlink.com 1.10,2013-01-11 03:12:00,
2013-01-10 22:27:00,54.3,47.0,30.44,East,91,2.0,10.0,76,0.00,,,0.00,weatherlink.com 1.10,2013-01-11 03:27:00,
2013-01-10 22:42:00,53.7,47.0,30.43,East,95,6.0,8.0,79,0.00,,,0.00,weatherlink.com 1.10,2013-01-11 03:42:00,
2013-01-10 22:57:00,52.2,48.0,30.42,East,101,3.0,7.0,85,0.00,,,0.00,weatherlink.com 1.10,2013-01-11 03:57:00,
2013-01-10 23:12:00,51.9,48.0,30.41,NNE,19,0.0,8.0,85,0.00,,,0.00,weatherlink.com 1.10,2013-01-11 04:12:00,
2013-01-10 23:27:00,51.9,47.0,30.42,ESE,108,3.0,6.0,84,0.00,,,0.00,weatherlink.com 1.10,2013-01-11 04:27:00,
2013-01-10 23:42:00,50.6,48.0,30.41,East,90,2.0,5.0,89,0.00,,,0.00,weatherlink.com 1.10,2013-01-11 04:42:00,
2013-01-10 23:57:00,49.3,47.0,30.41,East,81,2.0,6.0,92,0.01,,,0.01,weatherlink.com 1.10,2013-01-11 04:57:00,